[[{"header":{"parameterUnit":"m.s-1","parameterCategory":1,"la1":30.2991,"la2":30.254,"lo1":-89.0895,"lo2":-89.0444,"dy":0.0017,"dx":0.0017,"nx":28,"ny":28,"refTime":"2024-05-17T03:00:00:Z","depth":0,"parameterNumber":2,"parameterNumberName":"U-component_of_WINDS"},"data":[0,0,0,0,0,0,0,0,0,0,0,0,0,0,0,0,0,0,0,0,0,0,0,0,0,0,0,0,0,0,0,0,0,0,0,0,0,0,0,0,0,0,0,0,0,0,0,0,0,0,0,0,0,0,0,0,0,0,-0.5766,-0.5766,0,-0.5779,-0.5779,-0.578,-0.5801,-0.5801,-0.5801,-0.5802,-0.5815,-0.5815,-0.5815,0,0,0,0,0,0,0,0,0,0,0,0,0,-0.5757,-0.5758,-0.5766,-0.5766,-0.5766,-0.5779,-0.5779,-0.578,-0.5801,-0.5801,-0.5801,-0.5802,-0.5815,-0.5815,-0.5815,0,0,0,0,0,0,0,0,0,0,0,0,0,-0.5765,-0.5758,-0.5766,-0.5778,-0.5779,-0.5779,-0.5779,-0.578,-0.58,-0.5801,-0.5802,-0.5802,-0.5815,-0.5815,-0.5815,-0.5803,0,0,-0.5815,-0.5815,0,0,0,0,0,0,0,0,-0.5765,-0.5765,-0.5776,-0.5777,-0.5779,-0.5789,-0.5781,-0.5788,-0.58,-0.5792,-0.5802,-0.5802,-0.5806,-0.5806,-0.5808,-0.5804,-0.5804,-0.5815,-0.5815,-0.5815,-0.5815,0,0,0,0,0,0,0,-0.5764,-0.5765,-0.5771,-0.5776,-0.5778,-0.5783,-0.5785,-0.5783,-0.5796,-0.5793,-0.5795,-0.5796,-0.5806,-0.5808,-0.5808,-0.5805,-0.5815,-0.5815,-0.5815,-0.5815,-0.5792,-0.5791,0,0,0,0,0,0,-0.5762,-0.5764,-0.5771,-0.5771,-0.5773,-0.5783,-0.5784,-0.5785,-0.5796,-0.5798,-0.5796,-0.5797,-0.5807,-0.5808,-0.5809,-0.5796,-0.5815,-0.5815,-0.5815,-0.5793,-0.5792,-0.5791,0,0,0,0,0,0,-0.5761,-0.5762,-0.577,-0.5768,-0.577,-0.5782,-0.5783,-0.5785,-0.5786,-0.5798,-0.58,-0.5794,-0.5808,-0.5809,-0.5804,-0.5796,-0.5815,-0.5815,-0.5793,-0.5792,-0.5791,-0.577,0,0,0,0,0,0,-0.5761,-0.5762,-0.5758,-0.5768,-0.577,-0.5766,-0.5782,-0.5785,-0.5786,-0.5788,-0.5797,-0.5799,-0.5808,-0.5804,-0.5804,-0.5797,-0.5815,-0.5794,-0.5793,-0.5792,-0.5771,-0.5768,-0.5765,0,0,0,0,0,-0.5761,-0.5751,-0.5757,-0.5758,-0.5765,-0.5765,-0.5766,-0.5777,-0.5785,-0.5781,-0.5789,-0.5799,-0.5797,-0.5804,-0.5804,-0.5796,-0.5795,-0.5793,-0.5792,-0.5772,-0.5769,-0.5766,0,0,0,0,0,0,-0.5739,-0.5752,-0.576,-0.5753,-0.5758,-0.5769,-0.5764,-0.5773,-0.5775,-0.5777,-0.5791,-0.5792,-0.5786,-0.5791,-0.5798,-0.5786,-0.5798,-0.5796,-0.5783,-0.5779,-0.5776,-0.5775,-0.5815,0,0,0,0,0,-0.5733,-0.5733,-0.5745,-0.5737,-0.5739,-0.5751,-0.5752,-0.576,-0.5765,-0.5767,-0.5775,-0.5779,-0.578,-0.578,-0.5781,-0.5772,-0.5774,-0.5767,-0.5764,-0.5762,-0.576,-0.5756,-0.5752,-0.5787,-0.5787,-0.5787,0,0,-0.5721,-0.5729,-0.5728,-0.5733,-0.5738,-0.5737,-0.5753,-0.5751,-0.575,-0.5767,-0.5763,-0.5769,-0.5775,-0.5768,-0.5766,-0.5772,-0.5751,-0.576,-0.5758,-0.5758,-0.5754,-0.5751,-0.5748,-0.5786,-0.5786,-0.5786,0,0,-0.5699,-0.5705,-0.57,-0.5704,-0.5711,-0.5719,-0.5718,-0.5728,-0.5732,-0.5729,-0.5742,-0.5741,-0.5742,-0.5746,-0.5748,-0.5728,-0.5737,-0.5728,-0.5713,-0.5708,-0.5705,-0.5703,-0.5695,-0.5693,-0.5726,-0.5726,-0.5726,0,-0.5684,-0.5683,-0.5695,-0.5693,-0.5695,-0.5711,-0.5705,-0.5709,-0.5716,-0.5717,-0.5724,-0.5726,-0.5731,-0.5725,-0.572,-0.5722,-0.572,-0.5726,-0.5705,-0.5703,-0.5701,-0.5693,-0.5691,-0.5725,-0.5725,-0.5725,-0.5725,0,-0.5663,-0.5662,-0.5657,-0.5663,-0.5665,-0.5661,-0.5673,-0.5673,-0.5681,-0.5688,-0.5685,-0.5692,-0.5695,-0.5694,-0.5702,-0.569,-0.5693,-0.5702,-0.5715,-0.5696,-0.5689,-0.5687,-0.5723,-0.5724,-0.5724,-0.5724,0,0,-0.5626,-0.5641,-0.5638,-0.5642,-0.5651,-0.5651,-0.5647,-0.5651,-0.565,-0.5655,-0.5652,-0.5653,-0.5661,-0.5664,-0.5672,-0.5668,-0.5651,-0.5678,-0.5678,-0.5672,-0.5637,-0.563,-0.5626,-0.5658,-0.5658,-0.5657,-0.5637,0,-0.5605,-0.5601,-0.5612,-0.5605,-0.5604,-0.5619,-0.5617,-0.5622,-0.5629,-0.5629,-0.5637,-0.5637,-0.5648,-0.565,-0.5647,-0.5654,-0.5644,-0.5656,-0.5655,-0.5655,-0.5652,-0.5623,-0.5615,-0.5595,-0.5634,-0.5634,-0.5634,0,-0.558,-0.5584,-0.5576,-0.5586,-0.5586,-0.5583,-0.5587,-0.5587,-0.5594,-0.5599,-0.5602,-0.5612,-0.561,-0.5622,-0.5618,-0.5626,-0.5626,-0.563,-0.5629,-0.5629,-0.5642,-0.5621,-0.5589,-0.5586,-0.563,-0.563,-0.563,0,-0.5554,-0.5556,-0.5552,-0.5555,-0.5566,-0.5564,-0.5569,-0.5576,-0.5577,-0.5581,-0.5581,-0.5584,-0.5586,-0.5588,-0.5599,-0.5607,-0.5593,-0.5607,-0.5597,-0.5597,-0.5593,-0.5593,-0.556,-0.5595,-0.5595,-0.5595,-0.5595,0,-0.5529,-0.5523,-0.554,-0.5537,-0.5532,-0.5546,-0.5539,-0.5546,-0.5552,-0.555,-0.5564,-0.5563,-0.5578,-0.5577,-0.5586,-0.5581,-0.5582,-0.5586,-0.5588,-0.5584,-0.5583,-0.5584,-0.5585,-0.5594,-0.5594,-0.5594,-0.5594,0,-0.5497,-0.5509,-0.5505,-0.5517,-0.552,-0.5515,-0.5525,-0.5522,-0.5531,-0.5529,-0.5529,-0.5541,-0.5542,-0.5553,-0.5556,-0.5562,-0.5554,-0.5559,-0.5551,-0.5553,-0.5542,-0.5543,-0.5508,-0.5504,-0.5541,-0.5541,-0.5541,0,-0.548,-0.5476,-0.5488,-0.5488,-0.5492,-0.5492,-0.5494,-0.5507,-0.5508,-0.5516,-0.5512,-0.5514,-0.5516,-0.5517,-0.5526,-0.5528,-0.5533,-0.5521,-0.5533,-0.5529,-0.5532,-0.5532,-0.5531,-0.5517,-0.5517,-0.5517,-0.5516,0,-0.5448,-0.5454,-0.5456,-0.546,-0.5461,-0.5465,-0.5469,-0.5468,-0.5483,-0.5484,-0.5485,-0.5486,-0.549,-0.5491,-0.5495,-0.55,-0.551,-0.5512,-0.551,-0.5506,-0.5501,-0.5503,-0.5543,-0.5513,-0.5513,-0.5513,-0.5514,-0.5514,-0.5423,-0.542,-0.5428,-0.543,-0.5434,-0.5438,-0.5437,-0.5445,-0.5446,-0.545,-0.5458,-0.5458,-0.5464,-0.5471,-0.5475,-0.5475,-0.5481,-0.5478,-0.5477,-0.5476,-0.5474,-0.5502,-0.5476,-0.5476,-0.5476,-0.5476,-0.5476,0,-0.5392,-0.5397,-0.5399,-0.5405,-0.5406,-0.5416,-0.5422,-0.5422,-0.5421,-0.5427,-0.5429,-0.543,-0.5432,-0.5441,-0.5444,-0.5442,-0.5447,-0.5442,-0.5442,-0.5443,-0.5468,-0.5469,-0.5438,-0.5438,-0.5438,-0.5438,-0.5438,-0.5438,-0.5375,-0.5371,-0.5378,-0.5376,-0.5382,-0.5382,-0.5384,-0.5388,-0.5393,-0.5393,-0.5395,-0.5401,-0.5408,-0.5412,-0.5414,-0.5417,-0.5416,-0.541,-0.5414,-0.5437,-0.5441,-0.5445,-0.5446,-0.541,-0.541,-0.5389,-0.5389,-0.5389]},{"header":{"parameterUnit":"m.s-1","parameterCategory":1,"la1":30.2991,"la2":30.254,"lo1":-89.0895,"lo2":-89.0444,"dy":0.0017,"dx":0.0017,"nx":28,"ny":28,"refTime":"2024-05-17T03:00:00:Z","depth":0,"parameterNumber":3,"parameterNumberName":"V-component_of_WINDS"},"data":[0,0,0,0,0,0,0,0,0,0,0,0,0,0,0,0,0,0,0,0,0,0,0,0,0,0,0,0,0,0,0,0,0,0,0,0,0,0,0,0,0,0,0,0,0,0,0,0,0,0,0,0,0,0,0,0,0,0,6.8994,6.8994,0,6.9031,6.9031,6.9032,6.8977,6.8975,6.8974,6.8972,6.9004,6.9007,6.9009,0,0,0,0,0,0,0,0,0,0,0,0,0,6.887,6.8873,6.8994,6.8994,6.8995,6.9031,6.9031,6.9032,6.8978,6.8975,6.8973,6.8971,6.9003,6.9007,6.901,0,0,0,0,0,0,0,0,0,0,0,0,0,6.8917,6.8874,6.8993,6.8972,6.897,6.9031,6.9031,6.9032,6.8978,6.8975,6.8972,6.897,6.9002,6.9006,6.901,6.9092,0,0,6.9022,6.9024,0,0,0,0,0,0,0,0,6.8915,6.8922,6.8975,6.8974,6.8972,6.8997,6.9,6.9052,6.8979,6.8975,6.8972,6.8968,6.9004,6.9007,6.902,6.9093,6.9095,6.9023,6.9025,6.9027,6.9028,0,0,0,0,0,0,0,6.8911,6.892,6.9008,6.8975,6.8974,6.8959,6.8962,6.9009,6.9005,6.8975,6.8971,6.8977,6.9002,6.9017,6.9021,6.9095,6.9023,6.9026,6.9028,6.903,6.9237,6.924,0,0,0,0,0,0,6.8911,6.8917,6.9007,6.9009,6.8936,6.8963,6.8967,6.8992,6.9004,6.9003,6.8979,6.8974,6.9011,6.9016,6.9022,6.9119,6.9027,6.903,6.9033,6.9234,6.9238,6.9241,0,0,0,0,0,0,6.8909,6.892,6.9005,6.8962,6.8972,6.8969,6.8996,6.8994,6.9008,6.9007,6.9006,6.8995,6.9009,6.9016,6.9075,6.9119,6.9032,6.9036,6.923,6.9235,6.924,6.9313,0,0,0,0,0,0,6.8906,6.8919,6.8951,6.8964,6.8975,6.906,6.8999,6.8997,6.9016,6.901,6.9022,6.9021,6.9008,6.907,6.9079,6.9123,6.9039,6.9226,6.9233,6.9238,6.9307,6.932,6.9331,0,0,0,0,0,6.8902,6.8969,6.8953,6.8964,6.9015,6.9063,6.9069,6.9054,6.902,6.9051,6.9051,6.9021,6.9113,6.9076,6.9086,6.9132,6.9224,6.9231,6.9238,6.9301,6.9317,6.9331,0,0,0,0,0,0,6.8959,6.897,6.8953,6.9027,6.9045,6.9053,6.9093,6.9071,6.9097,6.909,6.9068,6.9071,6.9135,6.9139,6.9098,6.9212,6.9162,6.9172,6.9207,6.9222,6.9234,6.9232,6.9042,0,0,0,0,0,6.8981,6.9021,6.9027,6.9092,6.9102,6.9096,6.9116,6.9104,6.912,6.9127,6.913,6.9146,6.9179,6.9201,6.923,6.9307,6.9309,6.9343,6.9356,6.9365,6.9374,6.9415,6.9431,6.9264,6.9264,6.9264,0,0,6.9026,6.9037,6.9063,6.9104,6.9116,6.9157,6.9103,6.9147,6.9176,6.9133,6.919,6.9193,6.9209,6.9278,6.9308,6.9283,6.942,6.9374,6.9382,6.9385,6.9424,6.944,6.9454,6.9269,6.9268,6.9268,0,0,6.9128,6.914,6.9196,6.921,6.9231,6.9227,6.924,6.9253,6.9254,6.9311,6.928,6.9313,6.937,6.9383,6.9397,6.9507,6.948,6.9517,6.958,6.962,6.9633,6.9645,6.9685,6.9699,6.9525,6.9525,6.9525,0,6.918,6.9242,6.9227,6.9275,6.9294,6.9259,6.9314,6.9328,6.9356,6.9369,6.9341,6.9413,6.9421,6.9493,6.952,6.9532,6.9546,6.9515,6.9633,6.9645,6.9655,6.9692,6.9707,6.9529,6.9529,6.9529,6.9528,0,6.9305,6.9348,6.9391,6.9422,6.9446,6.9497,6.9489,6.9514,6.95,6.9498,6.9557,6.9566,6.9598,6.9613,6.9598,6.9684,6.9668,6.9637,6.9586,6.9676,6.971,6.9725,6.9536,6.9534,6.9533,6.9532,0,0,6.9444,6.9468,6.9484,6.9498,6.9519,6.9551,6.9601,6.9634,6.9656,6.9677,6.9718,6.9767,6.974,6.9756,6.9742,6.9778,6.9865,6.9742,6.9742,6.9765,6.9959,6.9983,7.0,6.9847,6.985,6.9852,6.9958,0,6.9547,6.9635,6.9624,6.9708,6.9748,6.9716,6.9759,6.9775,6.9776,6.9808,6.9807,6.9843,6.9803,6.9813,6.9847,6.9847,6.9903,6.9839,6.9884,6.9886,6.9882,7.0018,7.0043,7.0142,6.9972,6.9974,6.9976,0,6.9678,6.9707,6.9796,6.9812,6.9828,6.9868,6.9898,6.993,6.9947,6.9945,6.9964,6.9945,6.9993,6.9942,7.0009,6.9965,6.9983,6.9986,6.9989,6.9993,6.9937,7.0026,7.0174,7.0189,6.9997,6.9995,6.9994,0,6.9771,6.9832,6.9894,6.9907,6.9927,6.9955,6.9964,6.998,7.0001,7.0027,7.004,7.007,7.0087,7.011,7.0099,7.0063,7.0167,7.0115,7.0166,7.0167,7.019,7.0188,7.0343,7.0201,7.02,7.02,7.02,0,6.9888,6.9943,6.9936,6.9974,7.0036,7.0021,7.0082,7.0087,7.0101,7.0138,7.0111,7.0146,7.0129,7.0163,7.0154,7.0211,7.0218,7.0217,7.0214,7.0219,7.022,7.0231,7.0224,7.0204,7.0203,7.0202,7.0202,0,7.0002,7.0,7.0065,7.0079,7.0084,7.0129,7.0141,7.0175,7.0174,7.0222,7.0232,7.0229,7.0267,7.0259,7.0299,7.0294,7.0365,7.0353,7.036,7.0358,7.0409,7.0405,7.0577,7.0599,7.0442,7.0443,7.0444,0,7.0077,7.0119,7.014,7.0164,7.0176,7.0215,7.0238,7.0225,7.0249,7.0274,7.0306,7.0342,7.0371,7.0433,7.0434,7.0465,7.0454,7.0512,7.0458,7.0463,7.0456,7.0454,7.0458,7.0523,7.0525,7.0526,7.0527,0,7.0209,7.0207,7.0241,7.0276,7.0305,7.033,7.0353,7.0374,7.0364,7.0392,7.0432,7.0455,7.0498,7.0534,7.0564,7.0571,7.0548,7.0545,7.0558,7.0565,7.0567,7.0567,7.039,7.054,7.0539,7.0538,7.0538,7.0537,7.0306,7.0344,7.0365,7.0404,7.0421,7.0444,7.0478,7.0482,7.0516,7.0553,7.0542,7.0588,7.0605,7.0643,7.0654,7.0689,7.0667,7.0686,7.0691,7.0696,7.0703,7.0562,7.0694,7.0693,7.0693,7.0693,7.0692,0,7.0438,7.0451,7.0488,7.0523,7.0554,7.0532,7.0556,7.0583,7.0625,7.0644,7.0674,7.072,7.0756,7.076,7.0793,7.082,7.081,7.0829,7.0827,7.083,7.072,7.0706,7.0837,7.0837,7.0837,7.0837,7.0837,7.0837,7.0511,7.0573,7.0573,7.0643,7.0654,7.0701,7.0718,7.0738,7.0754,7.0808,7.0838,7.0842,7.0855,7.0889,7.092,7.092,7.0934,7.0958,7.0954,7.0852,7.0837,7.0823,7.081,7.0961,7.0961,7.106,7.1061,7.1062]}]]